TimeCST,TemperatureF,Dew PointF,Humidity,Sea Level PressureIn,VisibilityMPH,Wind Direction,Wind SpeedMPH,Gust SpeedMPH,PrecipitationIn,Events,Conditions,WindDirDegrees,DateUTC
12:56 AM,24.1,21.0,88,30.57,10.0,Calm,Calm,-,N/A,,Clear,0,2013-11-29 06:56:00
1:56 AM,24.1,21.0,88,30.57,10.0,Calm,Calm,-,N/A,,Clear,0,2013-11-29 07:56:00
2:56 AM,22.1,20.1,92,30.58,10.0,Calm,Calm,-,N/A,,Clear,0,2013-11-29 08:56:00
3:56 AM,21.0,18.1,89,30.58,10.0,Calm,Calm,-,N/A,,Clear,0,2013-11-29 09:56:00
4:56 AM,21.0,19.0,92,30.61,10.0,Calm,Calm,-,N/A,,Clear,0,2013-11-29 10:56:00
5:56 AM,20.1,18.1,92,30.62,10.0,Calm,Calm,-,N/A,,Clear,0,2013-11-29 11:56:00
6:56 AM,21.0,19.0,92,30.64,10.0,Calm,Calm,-,N/A,,Clear,0,2013-11-29 12:56:00
7:56 AM,26.1,23.0,88,30.65,10.0,Calm,Calm,-,N/A,,Clear,0,2013-11-29 13:56:00
8:56 AM,32.0,23.0,69,30.66,10.0,Calm,Calm,-,N/A,,Clear,0,2013-11-29 14:56:00
9:56 AM,38.8,24.1,55,30.66,10.0,Calm,Calm,-,N/A,,Clear,0,2013-11-29 15:56:00
10:56 AM,45.0,22.1,40,30.63,10.0,Variable,5.8,-,N/A,,Clear,0,2013-11-29 16:56:00
11:56 AM,46.9,23.0,39,30.60,10.0,NNW,4.6,-,N/A,,Clear,330,2013-11-29 17:56:00
12:56 PM,48.9,23.0,36,30.58,10.0,Variable,5.8,-,N/A,,Clear,0,2013-11-29 18:56:00
1:56 PM,50.9,23.0,34,30.56,10.0,NNW,4.6,-,N/A,,Clear,330,2013-11-29 19:56:00
2:56 PM,50.9,23.0,34,30.56,10.0,North,5.8,-,N/A,,Clear,350,2013-11-29 20:56:00
3:56 PM,48.9,24.1,38,30.56,10.0,NNE,5.8,-,N/A,,Clear,20,2013-11-29 21:56:00
4:56 PM,37.9,25.2,60,30.56,10.0,North,3.5,-,N/A,,Clear,360,2013-11-29 22:56:00
5:56 PM,34.9,25.2,68,30.56,10.0,Calm,Calm,-,N/A,,Clear,0,2013-11-29 23:56:00
6:56 PM,32.0,25.2,76,30.55,10.0,Calm,Calm,-,N/A,,Clear,0,2013-11-30 00:56:00
7:56 PM,29.1,24.1,81,30.55,10.0,Calm,Calm,-,N/A,,Clear,0,2013-11-30 01:56:00
8:56 PM,27.1,24.1,88,30.54,10.0,Calm,Calm,-,N/A,,Clear,0,2013-11-30 02:56:00
9:56 PM,27.1,26.1,96,30.53,10.0,Calm,Calm,-,N/A,,Clear,0,2013-11-30 03:56:00
10:56 PM,27.1,25.2,92,30.52,10.0,Calm,Calm,-,N/A,,Clear,0,2013-11-30 04:56:00
11:56 PM,25.2,24.1,96,30.52,10.0,Calm,Calm,-,N/A,,Clear,0,2013-11-30 05:56:00